Time,TemperatureF,DewpointF,PressureIn,WindDirection,WindDirectionDegrees,WindSpeedMPH,WindSpeedGustMPH,Humidity,HourlyPrecipIn,Conditions,Clouds,dailyrainin,SoftwareType,DateUTC
2013-09-14 00:13:00,62.0,53.0,-100.00,NNW,330,13.0,18.0,70,-99.99,,,-99.99,,2013-09-14 04:13:00,
2013-09-14 00:43:00,62.0,52.0,-100.00,NNW,330,11.0,13.0,70,-99.99,,,-99.99,,2013-09-14 04:43:00,
2013-09-14 01:12:00,61.0,52.0,-100.00,NNW,330,13.0,16.0,71,-99.99,,,-99.99,,2013-09-14 05:12:00,
2013-09-14 01:43:00,62.0,53.0,-100.00,NW,320,13.0,18.0,71,-99.99,,,-99.99,,2013-09-14 05:43:00,
2013-09-14 02:12:00,61.0,52.0,-100.00,NNW,330,13.0,18.0,71,-99.99,,,-99.99,,2013-09-14 06:12:00,
2013-09-14 02:42:00,61.0,51.0,-100.00,NW,320,11.0,18.0,71,-99.99,,,-99.99,,2013-09-14 06:42:00,
2013-09-14 03:12:00,60.0,51.0,-100.00,NW,310,11.0,20.0,72,-99.99,,,-99.99,,2013-09-14 07:12:00,
2013-09-14 03:42:00,59.0,51.0,-100.00,NNW,340,13.0,18.0,73,-99.99,,,-99.99,,2013-09-14 07:42:00,
2013-09-14 04:12:00,59.0,50.0,-100.00,NNW,330,11.0,18.0,73,-99.99,,,-99.99,,2013-09-14 08:12:00,
2013-09-14 04:42:00,58.0,50.0,-100.00,NNW,330,11.0,16.0,73,-99.99,,,-99.99,,2013-09-14 08:42:00,
2013-09-14 05:43:00,58.0,50.0,-100.00,NNW,330,11.0,16.0,74,-99.99,,,-99.99,,2013-09-14 09:43:00,
2013-09-14 06:12:00,57.0,50.0,-100.00,NNW,340,11.0,16.0,76,-99.99,,,-99.99,,2013-09-14 10:12:00,
2013-09-14 06:42:00,57.0,49.0,-100.00,NNW,330,13.0,18.0,75,-99.99,,,-99.99,,2013-09-14 10:42:00,
2013-09-14 07:12:00,57.0,50.0,-100.00,NNW,330,11.0,16.0,76,-99.99,,,-99.99,,2013-09-14 11:12:00,
2013-09-14 08:12:00,57.0,49.0,-100.00,NW,310,13.0,16.0,74,-99.99,,,-99.99,,2013-09-14 12:12:00,
2013-09-14 08:42:00,57.0,48.0,-100.00,NW,320,11.0,16.0,73,-99.99,,,-99.99,,2013-09-14 12:42:00,
2013-09-14 09:11:00,57.0,48.0,-100.00,NW,320,11.0,16.0,72,-99.99,,,-99.99,,2013-09-14 13:11:00,
2013-09-14 09:42:00,57.0,48.0,-100.00,NNW,330,13.0,18.0,70,-99.99,,,-99.99,,2013-09-14 13:42:00,
2013-09-14 10:11:00,58.0,48.0,-100.00,NNW,340,13.0,20.0,69,-99.99,,,-99.99,,2013-09-14 14:11:00,
2013-09-14 10:42:00,58.0,48.0,-100.00,NNW,340,13.0,20.0,67,-99.99,,,-99.99,,2013-09-14 14:42:00,
2013-09-14 11:11:00,59.0,48.0,-100.00,NNW,330,11.0,16.0,66,-99.99,,,-99.99,,2013-09-14 15:11:00,
2013-09-14 11:43:00,60.0,49.0,-100.00,NNW,340,16.0,20.0,65,-99.99,,,-99.99,,2013-09-14 15:43:00,
2013-09-14 12:13:00,61.0,48.0,-100.00,NNW,330,13.0,22.0,63,-99.99,,,-99.99,,2013-09-14 16:13:00,
2013-09-14 12:43:00,62.0,48.0,-100.00,NNW,330,9.0,16.0,61,-99.99,,,-99.99,,2013-09-14 16:43:00,
2013-09-14 13:11:00,62.0,49.0,-100.00,NNW,330,11.0,16.0,60,-99.99,,,-99.99,,2013-09-14 17:11:00,
2013-09-14 14:43:00,64.0,48.0,-100.00,NNW,340,9.0,16.0,57,-99.99,,,-99.99,,2013-09-14 18:43:00,
2013-09-14 15:11:00,64.0,48.0,-100.00,North,360,9.0,13.0,56,-99.99,,,-99.99,,2013-09-14 19:11:00,
2013-09-14 15:42:00,64.0,48.0,-100.00,North,360,4.0,9.0,55,-99.99,,,-99.99,,2013-09-14 19:42:00,
2013-09-14 16:12:00,65.0,48.0,-100.00,NNW,340,4.0,9.0,53,-99.99,,,-99.99,,2013-09-14 20:12:00,
2013-09-14 16:42:00,65.0,48.0,-100.00,NW,320,7.0,11.0,53,-99.99,,,-99.99,,2013-09-14 20:42:00,
2013-09-14 17:11:00,65.0,48.0,-100.00,NW,310,9.0,13.0,54,-99.99,,,-99.99,,2013-09-14 21:11:00,
2013-09-14 17:44:00,65.0,49.0,-100.00,NW,320,11.0,16.0,54,-99.99,,,-99.99,,2013-09-14 21:44:00,
2013-09-14 18:13:00,65.0,49.0,-100.00,NW,310,13.0,16.0,55,-99.99,,,-99.99,,2013-09-14 22:13:00,
2013-09-14 18:42:00,66.0,49.0,-100.00,WNW,300,11.0,13.0,53,-99.99,,,-99.99,,2013-09-14 22:42:00,
2013-09-14 19:11:00,66.0,49.0,-100.00,NW,310,13.0,16.0,54,-99.99,,,-99.99,,2013-09-14 23:11:00,
2013-09-14 19:42:00,65.0,50.0,-100.00,WNW,290,13.0,18.0,58,-99.99,,,-99.99,,2013-09-14 23:42:00,
2013-09-14 20:12:00,64.0,50.0,-100.00,WNW,300,16.0,20.0,60,-99.99,,,-99.99,,2013-09-15 00:12:00,
2013-09-14 20:42:00,63.0,49.0,-100.00,WNW,290,16.0,20.0,60,-99.99,,,-99.99,,2013-09-15 00:42:00,
2013-09-14 21:11:00,63.0,49.0,-100.00,WNW,290,13.0,18.0,61,-99.99,,,-99.99,,2013-09-15 01:11:00,
2013-09-14 21:42:00,63.0,50.0,-100.00,WNW,300,13.0,18.0,62,-99.99,,,-99.99,,2013-09-15 01:42:00,
2013-09-14 22:12:00,62.0,50.0,-100.00,WNW,300,13.0,18.0,64,-99.99,,,-99.99,,2013-09-15 02:12:00,
2013-09-14 22:42:00,62.0,50.0,-100.00,NW,310,16.0,18.0,64,-99.99,,,-99.99,,2013-09-15 02:42:00,
2013-09-14 23:11:00,61.0,49.0,-100.00,NW,310,13.0,16.0,64,-99.99,,,-99.99,,2013-09-15 03:11:00,
2013-09-14 23:44:00,61.0,49.0,-100.00,NW,310,13.0,16.0,65,-99.99,,,-99.99,,2013-09-15 03:44:00,